COSMOS 249 DEB, 3923

Orbit data source: Space-Track

COSMOS 249 DEB, 3923 is space debris in LEO originally from a launch on Sun, 20 Oct 1968 UTC launched from the Tyuratam Missile And Space Complex (TTMTR). Debris objects in space refer to the collection of defunct objects orbiting the Earth. Examples of debris include non-operational satellites, rocket bodies, and fragments generated from explosions, collisions, or faulty payload assembly.

Loading next visibility...
Identifier
3923, 1968-091BR
Orbit
LEO
Country
Flag of CISCIS
Related business
Manufacturer
Unknown
Mission
Spacecraft
Bus & Motor
Unknown
Mass
Unknown
Launch date (UTC)
1968-10-20 (58 years ago)
Launch vehicle
Unknown
Launch site
Tyuratam Missile And Space Complex (TTMTR)
Object type
Payload
Rocket body
Debris
Shape & HBR
Unknown shape, 0.1 m
Radar Cross Section
Medium (>0.1 m² and <1 m²)

Expand to show TLE details & history
Last TLE update: 22 hours ago

TLE from 22 hours ago
0 COSMOS 249 DEB
1 03923U 68091BR  26235.41070400  .00000929  00000-0  62512-3 0  9994
2 03923  62.2281 246.4527 0577625 223.8138 131.5666 13.45616010725660
Epoch: 2026-08-23T09:51Z
TLE epoch observation values (Epoch: 2026-08-23T09:51:24.825Z)
Latitude
0.00001°
Longitude
126.89212°
Altitude
1,389.433 km
Speed
7.02 km/s
True Right ascension
16h 25m 48s
True Declination
0° 00' 00"
Sunlit
Object was in daylight at epoch
Visualization orbit readout
Latitude
Unknown
Longitude
Unknown
Altitude
Unknown
Speed
Unknown
Apparent Right ascension
Unknown
Apparent Declination
Unknown
Sunlit
N/A
Visualization observer readout
Local Sidereal Time
23:03:54
Azimuth
Unknown
Elevation
Unknown
Doppler factor
Unknown
Orbital elements
Apogee altitude
1,518.631 km
Perigee altitude
656.175 km
Semi-major axis
7,465.54 km
Eccentricity
0.05776
Inclination
62.2281°
RAAN
246.4527°
Arg. of periapsis
223.8138°
True anomaly
136.28681°
Mean anomaly
131.5666°
Eccentric anomaly
133.94932°
Mean motion
3.36474 °/min
Orbital period
106.99 mins
BSTAR
0.00062512
Loading maneuver chart data...
Computing Atmospheric mass density...
Loading historical data...
Loading historical data...
Loading historical data...
Loading historical data...
Loading historical data...
Loading historical data...
Loading historical data...

Documentation

Showing up to 5 results
|